Weather History for Morris, MN

Change the Weather History Date:

Monday, October 1, 2012

  Actual Average Record
Temperature  
Mean Temperature 56 °F -  
Max Temperature 69 °F 62 °F 84 °F (2005)
Min Temperature 42 °F 38 °F 23 °F (2003)
Degree Days  
Heating Degree Days 8    
Growing Degree Days 6 (Base 50)    
Moisture  
Dew Point 36 °F    
Average Humidity 43    
Maximum Humidity 67    
Minimum Humidity 21    
Precipitation  
Precipitation 0.00 in - - ()
Sea Level Pressure  
Sea Level Pressure 29.99 in    
Wind  
Wind Speed 15 mph (NNW)    
Max Wind Speed 28 mph    
Max Gust Speed 37 mph    
Visibility 10 miles    
Events      
Averages and records for this station are not official NWS values.
T = Trace of Precipitation, MM = Missing Value Source: NWS Daily Summary

Daily Weather History Graph

Daily Weather History Graph

Search for Another Location

Airport:

Trip Planner

Search our weather history database for the weather conditions in past years. The results will help you decide how hot, cold, wet, or windy it might be!

Date:

Astronomy

Oct. 01, 2012 Rise Set
Actual Time 7:22 AM CDT 7:03 PM CDT
Civil Twilight 6:53 AM CDT 7:32 PM CDT
Nautical Twilight 6:18 AM CDT 8:06 PM CDT
Astronomical Twilight 5:43 AM CDT 8:41 PM CDT
Moon 7:32 PM CDT (10/1) 9:00 AM CDT (10/1)
Length of Visible Light 12h 39m
Length of Day
11h 40m
Full, 98% of the Moon is Illuminated
Oct 1
Full
Oct 8
Last Quarter
Oct 15
New
Oct 21
First Quarter
Oct 29
Full

Hourly Weather History & Observations

Time (CDT) Temp. Windchill Dew Point Humidity Pressure Visibility Wind Dir Wind Speed Gust Speed Precip Events Conditions
12:10 AM 64.4 °F - 46.4 °F 52% 29.89 in 10.0 mi NNW 10.4 mph - N/A   Clear
12:30 AM 64.4 °F - 46.4 °F 52% 29.89 in 10.0 mi NNW 10.4 mph - N/A   Scattered Clouds
12:51 AM 64.4 °F - 46.4 °F 52% 29.89 in 10.0 mi NNW 12.7 mph - N/A   Mostly Cloudy
1:10 AM 64.4 °F - 46.4 °F 52% 29.90 in 10.0 mi NNW 12.7 mph - N/A   Scattered Clouds
1:31 AM 64.4 °F - 46.4 °F 52% 29.90 in 10.0 mi NNW 11.5 mph - N/A   Clear
1:50 AM 64.4 °F - 48.2 °F 56% 29.90 in 10.0 mi NNW 15.0 mph 19.6 mph N/A   Mostly Cloudy
2:11 AM 64.4 °F - 46.4 °F 52% 29.91 in 10.0 mi NNW 18.4 mph - N/A   Mostly Cloudy
2:30 AM 62.6 °F - 44.6 °F 52% 29.92 in 10.0 mi NNW 19.6 mph 23.0 mph N/A   Mostly Cloudy
2:50 AM 60.8 °F - 46.4 °F 59% 29.93 in 10.0 mi NNW 16.1 mph - N/A   Light Drizzle
3:11 AM 60.8 °F - 44.6 °F 55% 29.94 in 10.0 mi NW 11.5 mph - N/A   Mostly Cloudy
3:30 AM 60.8 °F - 42.8 °F 52% 29.95 in 10.0 mi NW 13.8 mph - N/A   Mostly Cloudy
3:51 AM 60.8 °F - 42.8 °F 52% 29.95 in 10.0 mi NW 12.7 mph - N/A   Scattered Clouds
4:10 AM 60.8 °F - 42.8 °F 52% 29.96 in 10.0 mi NW 12.7 mph - N/A   Clear
4:31 AM 60.8 °F - 42.8 °F 52% 29.96 in 10.0 mi NNW 11.5 mph 19.6 mph N/A   Clear
4:50 AM 59.0 °F - 42.8 °F 55% 29.96 in 10.0 mi NNW 12.7 mph - N/A   Clear
5:10 AM 57.2 °F - 42.8 °F 59% 29.96 in 10.0 mi NNW 17.3 mph - N/A   Clear
5:30 AM 57.2 °F - 41.0 °F 55% 29.96 in 10.0 mi NNW 15.0 mph 21.9 mph N/A   Clear
5:50 AM 55.4 °F - 41.0 °F 58% 29.97 in 10.0 mi NNW 16.1 mph 20.7 mph N/A   Clear
6:11 AM 55.4 °F - 41.0 °F 58% 29.97 in 10.0 mi NNW 15.0 mph 19.6 mph N/A   Clear
6:30 AM 55.4 °F - 41.0 °F 58% 29.98 in 10.0 mi NNW 15.0 mph - N/A   Scattered Clouds
6:50 AM 53.6 °F - 41.0 °F 62% 29.98 in 10.0 mi NNW 15.0 mph - N/A   Scattered Clouds
7:10 AM 53.6 °F - 41.0 °F 62% 29.99 in 10.0 mi NW 13.8 mph - N/A   Mostly Cloudy
7:30 AM 53.6 °F - 41.0 °F 62% 29.99 in 10.0 mi NNW 11.5 mph - N/A   Overcast
7:51 AM 51.8 °F - 41.0 °F 67% 30.00 in 10.0 mi NW 12.7 mph - N/A   Scattered Clouds
8:10 AM 51.8 °F - 41.0 °F 67% 30.01 in 10.0 mi NW 15.0 mph - N/A   Clear
8:31 AM 53.6 °F - 41.0 °F 62% 30.02 in 10.0 mi NNW 13.8 mph - N/A   Clear
8:50 AM 53.6 °F - 41.0 °F 62% 30.02 in 10.0 mi NNW 15.0 mph - N/A   Clear
9:10 AM 55.4 °F - 41.0 °F 58% 30.02 in 10.0 mi NNW 19.6 mph 26.5 mph N/A   Clear
9:30 AM 57.2 °F - 41.0 °F 55% 30.03 in 10.0 mi NNW 23.0 mph 28.8 mph N/A   Clear
9:50 AM 60.8 °F - 42.8 °F 52% 30.03 in 10.0 mi NNW 20.7 mph 28.8 mph N/A   Clear
10:11 AM 62.6 °F - 42.8 °F 48% 30.03 in 10.0 mi North 21.9 mph 26.5 mph N/A   Clear
10:30 AM 62.6 °F - 42.8 °F 48% 30.03 in 10.0 mi NNW 24.2 mph 29.9 mph N/A   Clear
10:50 AM 62.6 °F - 41.0 °F 45% 30.04 in 10.0 mi NNW 21.9 mph 26.5 mph N/A   Clear
11:11 AM 64.4 °F - 41.0 °F 42% 30.05 in 10.0 mi NNW 23.0 mph 32.2 mph N/A   Clear
11:31 AM 64.4 °F - 39.2 °F 40% 30.05 in 10.0 mi North 20.7 mph 26.5 mph N/A   Clear
11:50 AM 66.2 °F - 37.4 °F 35% 30.04 in 10.0 mi North 26.5 mph 29.9 mph N/A   Clear
12:10 PM 66.2 °F - 37.4 °F 35% 30.04 in 10.0 mi North 24.2 mph 34.5 mph N/A   Clear
12:31 PM 66.2 °F - 37.4 °F 35% 30.03 in 10.0 mi North 26.5 mph 36.8 mph N/A   Clear
12:50 PM 68.0 °F - 35.6 °F 30% 30.03 in 10.0 mi North 26.5 mph 33.4 mph N/A   Clear
1:11 PM 68.0 °F - 35.6 °F 30% 30.03 in 10.0 mi NNW 27.6 mph 33.4 mph N/A   Clear
1:30 PM 68.0 °F - 35.6 °F 30% 30.02 in 10.0 mi North 24.2 mph 32.2 mph N/A   Clear
1:50 PM 69.8 °F - 35.6 °F 28% 30.01 in 10.0 mi North 23.0 mph 29.9 mph N/A   Clear
2:11 PM 69.8 °F - 33.8 °F 27% 30.01 in 10.0 mi North 20.7 mph 33.4 mph N/A   Clear
2:30 PM 69.8 °F - 33.8 °F 27% 30.00 in 10.0 mi NNW 21.9 mph 32.2 mph N/A   Clear
2:50 PM 69.8 °F - 32.0 °F 25% 30.00 in 10.0 mi North 21.9 mph 32.2 mph N/A   Clear
3:10 PM 69.8 °F - 32.0 °F 25% 30.00 in 10.0 mi North 24.2 mph 28.8 mph N/A   Clear
3:31 PM 69.8 °F - 30.2 °F 23% 30.00 in 10.0 mi North 23.0 mph 31.1 mph N/A   Clear
3:50 PM 69.8 °F - 32.0 °F 25% 30.00 in 10.0 mi North 21.9 mph 27.6 mph N/A   Clear
4:10 PM 69.8 °F - 30.2 °F 23% 30.00 in 10.0 mi NNW 23.0 mph 29.9 mph N/A   Clear
4:30 PM 69.8 °F - 30.2 °F 23% 29.99 in 10.0 mi NNW 19.6 mph 27.6 mph N/A   Clear
5:11 PM 69.8 °F - 28.4 °F 21% 30.00 in 10.0 mi North 20.7 mph 25.3 mph N/A   Clear
5:31 PM 68.0 °F - 28.4 °F 23% 30.00 in 10.0 mi North 16.1 mph 26.5 mph N/A   Clear
5:50 PM 66.2 °F - 26.6 °F 23% 30.00 in 10.0 mi North 19.6 mph - N/A   Clear
6:10 PM 66.2 °F - 26.6 °F 23% 30.00 in 10.0 mi North 19.6 mph - N/A   Clear
6:31 PM 64.4 °F - 26.6 °F 24% 30.00 in 10.0 mi North 13.8 mph - N/A   Clear
6:50 PM 62.6 °F - 26.6 °F 26% 30.00 in 10.0 mi North 11.5 mph - N/A   Clear
7:10 PM 57.2 °F - 26.6 °F 31% 30.00 in 10.0 mi North 8.1 mph - N/A   Clear
7:30 PM 55.4 °F - 26.6 °F 33% 30.00 in 10.0 mi North 8.1 mph - N/A   Clear
7:50 PM 53.6 °F - 26.6 °F 35% 30.01 in 7.0 mi NNW 8.1 mph - N/A   Clear
8:10 PM 53.6 °F - 26.6 °F 35% 30.00 in 10.0 mi NNW 6.9 mph - N/A   Clear
8:30 PM 51.8 °F - 24.8 °F 35% 30.00 in 7.0 mi North 8.1 mph - N/A   Clear
8:50 PM 53.6 °F - 26.6 °F 35% 30.01 in 7.0 mi NNW 6.9 mph - N/A   Clear
9:10 PM 51.8 °F - 26.6 °F 38% 30.00 in 7.0 mi North 5.8 mph - N/A   Clear
9:31 PM 51.8 °F - 26.6 °F 38% 30.00 in 10.0 mi North 5.8 mph - N/A   Clear
10:10 PM 46.4 °F 44.3 °F 24.8 °F 43% 30.00 in 5.0 mi NW 4.6 mph - N/A   Haze
10:51 PM 44.6 °F 42.2 °F 26.6 °F 49% 30.00 in 7.0 mi WNW 4.6 mph - N/A   Clear
11:10 PM 44.6 °F 42.2 °F 26.6 °F 49% 30.00 in 10.0 mi WNW 4.6 mph - N/A   Clear
11:31 PM 44.6 °F 42.2 °F 26.6 °F 49% 30.00 in 10.0 mi WNW 4.6 mph - N/A   Clear
11:50 PM 42.8 °F 41.1 °F 26.6 °F 53% 29.99 in 10.0 mi WNW 3.5 mph - N/A   Clear